Location: Bayshore Village Mobile Home Park
(26.6945°N, 81.8642°W)
Time: 16:23:45
(UTC+00:00)

USA 215 - Pass Details

Date: 17 June 2021
Orbit: 1100 x 1107 km, 123.0° (Epoch: 22 June)

Event Time Altitude Azimuth Distance (km) Brightness Sun altitude
Rises 03:03:22 0° 37° (NE) 3,915 6.3 -28.9°
Reaches altitude 10° 03:05:51 10° 35° (NE) 2,956 5.7 -29.2°
Maximum altitude 03:12:20 73° 312° (NW) 1,145 3.3 -30.1°
Drops below altitude 10° 03:18:50 10° 229° (SW) 2,950 5.4 -30.9°
Sets 03:21:18 0° 227° (SW) 3,907 6.1 -31.3°
